DW5513 Weather Reports


Display with metric or nautical units.
time (UTC)temp
F
wind
direction
speed
MPH
gust
MPH
rain 1hr
in
rain 24hr
in
rain mn
in
humidity
%
barometer
mb
20260901014548 66 166 0.0 0.0 0.00 0.00 0.00 93 1017.8
20260901013048 65 162 0.0 1.0 0.00 0.00 0.00 93 1017.7
20260901011555 65 163 0.0 1.0 0.00 0.00 0.00 93 1017.6
20260901010047 65 180 0.0 0.0 0.00 0.00 0.00 93 1017.4
20260901004546 65 180 0.0 0.0 0.00 0.00 0.00 92 1017.5
20260901003054 66 179 0.0 0.0 0.00 0.00 0.00 92 1017.4
20260901001545 66 180 0.0 0.0 0.00 0.00 0.00 91 1017.4
20260901000044 67 180 0.0 0.0 0.00 0.00 0.00 89 1017.6
20260831234542 68 176 0.0 2.0 0.00 0.00 0.00 86 1017.6
20260831233041 68 290 0.0 2.0 0.00 0.00 0.00 84 1017.7
20260831231540 68 105 0.0 0.0 0.00 0.00 0.00 83 1017.6
20260831230039 69 170 0.0 0.0 0.00 0.00 0.00 82 1017.8
20260831224538 69 175 0.0 1.0 0.00 0.00 0.00 82 1017.7
20260831223040 69 192 0.0 2.0 0.00 0.00 0.00 81 1017.9
20260831221539 69 165 0.0 3.0 0.00 0.00 0.00 82 1018.0
20260831220034 70 248 0.0 3.0 0.00 0.00 0.00 82 1018.1
20260831214541 70 196 1.0 4.0 0.00 0.00 0.00 82 1018.1
20260831213040 70 250 0.0 2.0 0.00 0.00 0.00 82 1018.3
20260831211532 70 161 0.0 2.0 0.00 0.00 0.00 81 1018.3
20260831210029 70 229 0.0 3.0 0.00 0.00 0.00 80 1018.4
20260831204529 71 154 0.0 3.0 0.00 0.01 0.00 79 1018.3
20260831203047 72 178 0.0 2.0 0.00 0.01 0.00 79 1018.2
20260831201529 72 245 0.0 2.0 0.00 0.01 0.00 78 1018.3
20260831200036 72 181 0.0 2.0 0.00 0.01 0.00 80 1018.3
20260831194524 72 179 0.0 3.0 0.00 0.02 0.00 80 1018.6
20260831193026 71 241 0.0 2.0 0.00 0.02 0.00 82 1018.6
20260831191523 72 242 0.0 1.0 0.00 0.02 0.00 81 1018.8
20260831190023 73 263 0.0 1.0 0.00 0.02 0.00 80 1018.8
20260831140008 68 52 0.0 4.0 0.00 0.02 0.00 88 1020.5
20260831134606 66 105 1.0 3.0 0.00 0.02 0.00 91 1020.4
20260831133057 64 82 0.0 3.0 0.00 0.02 0.00 92 1020.5
20260831131555 64 58 0.0 2.0 0.00 0.02 0.00 93 1020.6